YUNHAI-2 1 (43909 NORAD) Tracking and Keplerian Element Data

This shows tracking and keplerian element data for the satellite.

Feedback or suggestion? Click here.




ElementValue
Catalog43909
NameYUNHAI-2 1
Epoch Orbit447
Epoch Day27.86968554
Epoch Year2019
RAAN41.7413
Inclination50.0152
Eccentricity0.000619
Argument of Perigee8.8941
Mean Anonmoly53.0166
Mean Motion15.15107717
Decay Rate8.99E-06
L11 43909U 18112A 19027.86968554 .00000899 00000-0 63436-4 0 9990
L22 43909 50.0152 41.7413 0006190 8.8941 53.0166 15.15107717 4477

Live tracking and technical data element details for YUNHAI-2 1 (NORAD 43909). YUNHAI-2 1 can be tracked NOW for your location showing map with azimuth and elevation plus other details from your city location.

Track the satellite on the map from your city or location and see movement details for azimuth, elevation, latitude, longitude, range, height, and movement on the map or in text.







IsCatalogInMostPopularTable: catalog: 43909, numindb: 93
Update: records affected: 1



GetName: 43909 YUNHAI-2 1

Hit Count: updated at: Thu, 23 May 2019 15:55:13 GMT